DECAYED

COSMOS 2251 DEB, 34989 (Decayed)

Orbit data source: Space-Track

COSMOS 2251 DEB, 34989 was space debris in LEO originally from a launch on Wed, 16 Jun 1993 UTC launched from the Plesetsk Missile And Space Complex (PKMTR). The debris from Iridium 33, an American commercial communications satellite, has been tracked extensively since its accidental collision with the defunct Russian satellite Cosmos 2251 in 2009. This event, occurring at high speed in low Earth orbit (LEO), generated thousands of pieces of space debris, significantly increasing the risk of further collisions. The Iridium 33 debris cloud has impacted space traffic management and orbital debris mitigation strategies, making it a subject of ongoing study in space situational awareness.

Not visible in the next 10 days
Identifier
34989, 1993-036AFM
Orbit
Decayed
Country
Flag of CISCIS
Related business
Manufacturer
Unknown
Mission
Decayed spacecraft
Bus & Motor
Unknown
Mass
Unknown
Launch date (UTC)
1993-06-16 (33 years ago)
Launch vehicle
Unknown
Launch site
Plesetsk Missile And Space Complex (PKMTR)
Object type
Payload
Rocket body
Debris
Shape & HBR
Unknown shape, 0.1 m
Radar Cross Section
Medium (>0.1 m² and <1 m²)

Expand to show TLE details & history
Last TLE update: 9 months ago

TLE from 9 months ago
0 COSMOS 2251 DEB
1 34989U 93036AFM 25330.85527123  .03355871  16075-1  97381-2 0  9992
2 34989  73.9762 264.9617 0014772 160.2471 199.9342 15.96678707879395
Epoch: 2025-11-26T20:31Z
TLE epoch observation values (Epoch: 2025-11-26T20:31:35.434Z)
Latitude
0.00004°
Longitude
-108.95648°
Altitude
295.694 km
Speed
7.725 km/s
True Right ascension
17h 39m 50s
True Declination
0° 00' 00"
Sunlit
Object was in daylight at epoch
Visualization orbit readout
Latitude
Unknown
Longitude
Unknown
Altitude
Unknown
Speed
Unknown
Apparent Right ascension
Unknown
Apparent Declination
Unknown
Sunlit
N/A
Visualization observer readout
Local Sidereal Time
12:46:28
Azimuth
Unknown
Elevation
Unknown
Doppler factor
Unknown
Orbital elements
Apogee altitude
290.933 km
Perigee altitude
271.259 km
Semi-major axis
6,659.233 km
Eccentricity
0.00148
Inclination
73.9762°
RAAN
264.9617°
Arg. of periapsis
160.2471°
True anomaly
199.87659°
Mean anomaly
199.9342°
Eccentric anomaly
199.90538°
Mean motion
3.99399 °/min
Orbital period
90.14 mins
BSTAR
0.0097381
Loading maneuver chart data...
Computing Atmospheric mass density...

Documentation

Showing up to 5 results
|